| time (UTC) | temp C | wind direction | speed KPH | gust KPH | rain 1hr cm | rain 24hr cm | rain mn cm | humidity % | barometer mb |
| 20260506151039 | 11 | 0 | 0.0 | 1.6 | 0.00 | 0.00 | 0.00 | 95 | 1024.5 |
| 20260506150539 | 11 | 0 | 0.0 | 1.6 | 0.00 | 0.00 | 0.00 | 95 | 1024.6 |
| 20260506150048 | 11 | 0 | 0.0 | 1.6 | 0.00 | 0.00 | 0.00 | 95 | 1024.6 |
| 20260506145539 | 11 | 0 | 0.0 | 0.0 | 0.00 | 0.00 | 0.00 | 95 | 1024.7 |
| 20260506145040 | 11 | 0 | 0.0 | 1.6 | 0.00 | 0.00 | 0.00 | 95 | 1024.9 |
| 20260506144552 | 11 | 0 | 0.0 | 1.6 | 0.00 | 0.00 | 0.00 | 95 | 1024.9 |
| 20260506144039 | 11 | 77 | 0.0 | 1.6 | 0.00 | 0.00 | 0.00 | 95 | 1024.9 |
| 20260506143540 | 11 | 0 | 0.0 | 0.0 | 0.00 | 0.00 | 0.00 | 95 | 1024.9 |
| 20260506143050 | 11 | 0 | 0.0 | 0.0 | 0.00 | 0.00 | 0.00 | 95 | 1024.9 |
| 20260506142542 | 11 | 0 | 0.0 | 0.0 | 0.00 | 0.00 | 0.00 | 95 | 1025.0 |
| 20260506142039 | 12 | 0 | 0.0 | 0.0 | 0.00 | 0.00 | 0.00 | 95 | 1025.0 |
| 20260506141554 | 12 | 0 | 0.0 | 0.0 | 0.00 | 0.00 | 0.00 | 95 | 1025.1 |
| 20260506141039 | 12 | 0 | 0.0 | 0.0 | 0.00 | 0.00 | 0.00 | 95 | 1025.2 |
| 20260506140539 | 12 | 0 | 0.0 | 0.0 | 0.00 | 0.00 | 0.00 | 95 | 1025.1 |
| 20260506140054 | 12 | 0 | 0.0 | 0.0 | 0.00 | 0.00 | 0.00 | 95 | 1025.2 |
| 20260506135539 | 12 | 0 | 0.0 | 0.0 | 0.00 | 0.00 | 0.00 | 95 | 1025.3 |
| 20260506135036 | 12 | 0 | 0.0 | 0.0 | 0.00 | 0.00 | 0.00 | 95 | 1025.2 |
| 20260506134553 | 12 | 0 | 0.0 | 0.0 | 0.00 | 0.00 | 0.00 | 95 | 1025.2 |
| 20260506134043 | 12 | 0 | 0.0 | 0.0 | 0.00 | 0.00 | 0.00 | 95 | 1025.2 |
| 20260506133539 | 12 | 77 | 0.0 | 1.6 | 0.00 | 0.00 | 0.00 | 95 | 1025.2 |
| 20260506133054 | 12 | 0 | 0.0 | 1.6 | 0.00 | 0.00 | 0.00 | 95 | 1025.3 |
| 20260506132536 | 12 | 77 | 0.0 | 1.6 | 0.00 | 0.00 | 0.00 | 95 | 1025.3 |
| 20260506132036 | 12 | 77 | 0.0 | 1.6 | 0.00 | 0.00 | 0.00 | 95 | 1025.3 |
| 20260506131548 | 12 | 0 | 0.0 | 0.0 | 0.00 | 0.00 | 0.00 | 95 | 1025.3 |
| 20260506131039 | 12 | 0 | 0.0 | 0.0 | 0.00 | 0.00 | 0.00 | 95 | 1025.3 |
| 20260506130540 | 12 | 0 | 0.0 | 1.6 | 0.00 | 0.00 | 0.00 | 95 | 1025.2 |
| 20260506130050 | 12 | 0 | 0.0 | 1.6 | 0.00 | 0.00 | 0.00 | 96 | 1025.3 |
| 20260506125540 | 12 | 0 | 0.0 | 0.0 | 0.00 | 0.00 | 0.00 | 96 | 1025.4 |
| 20260506125039 | 12 | 0 | 0.0 | 0.0 | 0.00 | 0.00 | 0.00 | 95 | 1025.2 |
| 20260506124550 | 12 | 0 | 0.0 | 0.0 | 0.00 | 0.00 | 0.00 | 95 | 1025.4 |
| 20260506124036 | 12 | 0 | 0.0 | 0.0 | 0.00 | 0.00 | 0.00 | 95 | 1025.4 |
| 20260506123536 | 12 | 0 | 0.0 | 0.0 | 0.00 | 0.00 | 0.00 | 95 | 1025.3 |
| 20260506123050 | 12 | 0 | 0.0 | 0.0 | 0.00 | 0.00 | 0.00 | 95 | 1025.4 |
| 20260506122535 | 12 | 0 | 0.0 | 0.0 | 0.00 | 0.00 | 0.00 | 95 | 1025.3 |
| 20260506122036 | 12 | 0 | 0.0 | 0.0 | 0.00 | 0.00 | 0.00 | 95 | 1025.3 |
| 20260506121604 | 12 | 0 | 0.0 | 0.0 | 0.00 | 0.00 | 0.00 | 95 | 1025.3 |
| 20260506121036 | 12 | 0 | 0.0 | 0.0 | 0.00 | 0.00 | 0.00 | 96 | 1025.4 |
| 20260506120537 | 12 | 0 | 0.0 | 0.0 | 0.00 | 0.00 | 0.00 | 96 | 1025.3 |
| 20260506120050 | 12 | 0 | 0.0 | 0.0 | 0.00 | 0.00 | 0.00 | 96 | 1025.3 |
| 20260506115540 | 12 | 0 | 0.0 | 0.0 | 0.00 | 0.00 | 0.00 | 95 | 1025.3 |
| 20260506115037 | 12 | 0 | 0.0 | 0.0 | 0.00 | 0.00 | 0.00 | 95 | 1025.3 |
| 20260506114546 | 12 | 0 | 0.0 | 1.6 | 0.00 | 0.00 | 0.00 | 95 | 1025.3 |
| 20260506114040 | 12 | 0 | 0.0 | 1.6 | 0.00 | 0.00 | 0.00 | 95 | 1025.3 |
| 20260506113539 | 12 | 0 | 0.0 | 1.6 | 0.00 | 0.00 | 0.00 | 95 | 1025.2 |
| 20260506113047 | 12 | 0 | 0.0 | 3.2 | 0.00 | 0.00 | 0.00 | 96 | 1025.3 |
| 20260506112537 | 12 | 0 | 0.0 | 3.2 | 0.00 | 0.00 | 0.00 | 96 | 1025.4 |
| 20260506112039 | 12 | 81 | 0.0 | 3.2 | 0.00 | 0.00 | 0.00 | 96 | 1025.3 |
| 20260506111544 | 12 | 82 | 1.6 | 3.2 | 0.00 | 0.00 | 0.00 | 96 | 1025.3 |
| 20260506111036 | 12 | 88 | 1.6 | 3.2 | 0.00 | 0.00 | 0.00 | 96 | 1025.3 |
| 20260506110539 | 12 | 62 | 1.6 | 3.2 | 0.00 | 0.00 | 0.00 | 96 | 1025.4 |
| 20260506110051 | 12 | 78 | 1.6 | 3.2 | 0.00 | 0.00 | 0.00 | 96 | 1025.5 |
| 20260506105536 | 12 | 78 | 1.6 | 3.2 | 0.00 | 0.00 | 0.00 | 96 | 1025.6 |
| 20260506105037 | 12 | 71 | 1.6 | 3.2 | 0.00 | 0.00 | 0.00 | 96 | 1025.6 |
| 20260506104549 | 12 | 83 | 1.6 | 3.2 | 0.00 | 0.00 | 0.00 | 96 | 1025.6 |
| 20260506104036 | 12 | 78 | 0.0 | 3.2 | 0.00 | 0.00 | 0.00 | 96 | 1025.6 |
| 20260506103539 | 12 | 79 | 0.0 | 3.2 | 0.00 | 0.00 | 0.00 | 96 | 1025.6 |
| 20260506103048 | 12 | 0 | 0.0 | 3.2 | 0.00 | 0.00 | 0.00 | 96 | 1025.6 |
| 20260506102540 | 12 | 79 | 0.0 | 1.6 | 0.00 | 0.00 | 0.00 | 96 | 1025.6 |
| 20260506102044 | 12 | 79 | 0.0 | 3.2 | 0.00 | 0.00 | 0.00 | 96 | 1025.6 |
| 20260506101608 | 12 | 79 | 0.0 | 3.2 | 0.00 | 0.00 | 0.00 | 96 | 1025.7 |
| 20260506101039 | 13 | 75 | 1.6 | 3.2 | 0.00 | 0.00 | 0.00 | 96 | 1025.6 |
| 20260506100539 | 13 | 73 | 0.0 | 3.2 | 0.00 | 0.00 | 0.00 | 96 | 1025.6 |
| 20260506100048 | 13 | 73 | 1.6 | 3.2 | 0.00 | 0.00 | 0.00 | 96 | 1025.7 |
| 20260506095539 | 12 | 0 | 0.0 | 0.0 | 0.00 | 0.00 | 0.00 | 96 | 1025.6 |
| 20260506095039 | 12 | 0 | 0.0 | 0.0 | 0.00 | 0.00 | 0.00 | 96 | 1025.6 |
| 20260506094553 | 12 | 0 | 0.0 | 0.0 | 0.00 | 0.00 | 0.00 | 96 | 1025.8 |
| 20260506094039 | 12 | 0 | 0.0 | 0.0 | 0.00 | 0.00 | 0.00 | 96 | 1025.7 |
| 20260506093540 | 12 | 0 | 0.0 | 1.6 | 0.00 | 0.00 | 0.00 | 96 | 1025.7 |
| 20260506093043 | 12 | 0 | 0.0 | 1.6 | 0.00 | 0.00 | 0.00 | 96 | 1025.8 |
| 20260506092539 | 12 | 73 | 0.0 | 1.6 | 0.00 | 0.00 | 0.00 | 96 | 1025.7 |
| 20260506092039 | 12 | 0 | 0.0 | 1.6 | 0.00 | 0.00 | 0.00 | 96 | 1025.9 |
| 20260506091545 | 12 | 0 | 0.0 | 1.6 | 0.00 | 0.00 | 0.00 | 95 | 1025.8 |
| 20260506091039 | 12 | 73 | 0.0 | 1.6 | 0.00 | 0.00 | 0.00 | 95 | 1025.8 |
| 20260506090540 | 12 | 0 | 0.0 | 4.8 | 0.00 | 0.00 | 0.00 | 96 | 1026.0 |
| 20260506090059 | 12 | 0 | 1.6 | 4.8 | 0.00 | 0.00 | 0.00 | 97 | 1025.9 |
| 20260506085536 | 11 | 69 | 1.6 | 4.8 | 0.00 | 0.00 | 0.00 | 96 | 1026.0 |
| 20260506085040 | 11 | 75 | 1.6 | 6.4 | 0.00 | 0.00 | 0.00 | 95 | 1026.0 |
| 20260506084552 | 11 | 76 | 1.6 | 6.4 | 0.00 | 0.00 | 0.00 | 95 | 1025.9 |
| 20260506084039 | 11 | 71 | 4.8 | 11.3 | 0.00 | 0.00 | 0.00 | 95 | 1026.0 |
| 20260506083540 | 11 | 70 | 3.2 | 12.9 | 0.00 | 0.00 | 0.00 | 94 | 1025.9 |
| 20260506083045 | 12 | 63 | 4.8 | 12.9 | 0.00 | 0.00 | 0.00 | 91 | 1025.9 |
| 20260506082540 | 12 | 0 | 0.0 | 0.0 | 0.00 | 0.00 | 0.00 | 95 | 1025.8 |
| 20260506082040 | 12 | 0 | 0.0 | 0.0 | 0.00 | 0.00 | 0.00 | 95 | 1025.7 |
| 20260506081557 | 12 | 0 | 0.0 | 0.0 | 0.00 | 0.00 | 0.00 | 95 | 1025.8 |
| 20260506081043 | 12 | 0 | 0.0 | 0.0 | 0.00 | 0.00 | 0.00 | 95 | 1025.8 |
| 20260506080540 | 12 | 0 | 0.0 | 0.0 | 0.00 | 0.00 | 0.00 | 95 | 1025.9 |
| 20260506073046 | 12 | 0 | 0.0 | 0.0 | 0.00 | 0.00 | 0.00 | 93 | 1025.9 |
| 20260506072541 | 12 | 0 | 0.0 | 0.0 | 0.00 | 0.00 | 0.00 | 94 | 1025.9 |
| 20260506072041 | 12 | 0 | 0.0 | 0.0 | 0.00 | 0.00 | 0.00 | 94 | 1025.9 |
| 20260506071549 | 12 | 0 | 0.0 | 0.0 | 0.00 | 0.00 | 0.00 | 93 | 1025.8 |
| 20260506071044 | 13 | 0 | 0.0 | 0.0 | 0.00 | 0.00 | 0.00 | 93 | 1025.6 |
| 20260506070540 | 13 | 0 | 0.0 | 1.6 | 0.00 | 0.00 | 0.00 | 93 | 1025.6 |
| 20260506062040 | 14 | 270 | 1.6 | 3.2 | 0.00 | 0.00 | 0.00 | 92 | 1025.4 |
| 20260506061549 | 14 | 270 | 1.6 | 4.8 | 0.00 | 0.00 | 0.00 | 92 | 1025.4 |
| 20260506061041 | 15 | 282 | 1.6 | 4.8 | 0.00 | 0.00 | 0.00 | 92 | 1025.4 |
| 20260506060540 | 15 | 232 | 1.6 | 4.8 | 0.00 | 0.00 | 0.00 | 91 | 1025.4 |
| 20260506051038 | 16 | 234 | 4.8 | 8.0 | 0.00 | 0.00 | 0.00 | 87 | 1025.4 |
| 20260506050538 | 16 | 241 | 6.4 | 9.7 | 0.00 | 0.00 | 0.00 | 86 | 1025.5 |
| 20260506050114 | 16 | 240 | 6.4 | 9.7 | 0.00 | 0.00 | 0.00 | 86 | 1025.5 |
| 20260506045039 | 16 | 239 | 6.4 | 11.3 | 0.00 | 0.00 | 0.00 | 85 | 1025.6 |
| 20260506044548 | 16 | 236 | 6.4 | 12.9 | 0.00 | 0.00 | 0.00 | 84 | 1025.6 |
| 20260506044039 | 17 | 238 | 6.4 | 12.9 | 0.00 | 0.00 | 0.00 | 83 | 1025.6 |
| 20260506043536 | 17 | 242 | 6.4 | 14.5 | 0.00 | 0.00 | 0.00 | 82 | 1025.7 |
| 20260506043050 | 17 | 234 | 8.0 | 16.1 | 0.00 | 0.00 | 0.00 | 80 | 1025.6 |
| 20260506042540 | 17 | 243 | 9.7 | 16.1 | 0.00 | 0.00 | 0.00 | 80 | 1025.5 |
| 20260506042042 | 18 | 230 | 9.7 | 14.5 | 0.00 | 0.00 | 0.00 | 79 | 1025.6 |
| 20260506041558 | 18 | 238 | 8.0 | 14.5 | 0.00 | 0.00 | 0.00 | 79 | 1025.6 |
| 20260506041038 | 18 | 236 | 9.7 | 14.5 | 0.00 | 0.00 | 0.00 | 78 | 1025.6 |
| 20260506040538 | 18 | 238 | 8.0 | 12.9 | 0.00 | 0.00 | 0.00 | 78 | 1025.6 |
| 20260506040051 | 18 | 238 | 9.7 | 12.9 | 0.00 | 0.00 | 0.00 | 77 | 1025.6 |
| 20260506035541 | 18 | 251 | 8.0 | 14.5 | 0.00 | 0.00 | 0.00 | 77 | 1025.5 |
| 20260506035039 | 19 | 250 | 8.0 | 17.7 | 0.00 | 0.00 | 0.00 | 76 | 1025.5 |
| 20260506034553 | 19 | 243 | 9.7 | 17.7 | 0.00 | 0.00 | 0.00 | 75 | 1025.6 |
| 20260506034038 | 19 | 255 | 11.3 | 17.7 | 0.00 | 0.00 | 0.00 | 75 | 1025.6 |
| 20260506033539 | 19 | 252 | 11.3 | 19.3 | 0.00 | 0.00 | 0.00 | 75 | 1025.6 |
| 20260506033054 | 19 | 243 | 11.3 | 19.3 | 0.00 | 0.00 | 0.00 | 75 | 1025.7 |
| 20260506032543 | 19 | 238 | 9.7 | 16.1 | 0.00 | 0.00 | 0.00 | 75 | 1025.7 |
| 20260506032039 | 19 | 248 | 11.3 | 16.1 | 0.00 | 0.00 | 0.00 | 75 | 1025.6 |
| 20260506031549 | 19 | 249 | 9.7 | 17.7 | 0.00 | 0.00 | 0.00 | 75 | 1025.6 |
| 20260506031038 | 19 | 232 | 9.7 | 17.7 | 0.00 | 0.00 | 0.00 | 76 | 1025.6 |
| 20260506030538 | 19 | 241 | 12.9 | 17.7 | 0.00 | 0.00 | 0.00 | 75 | 1025.6 |
| 20260506030048 | 19 | 239 | 11.3 | 19.3 | 0.00 | 0.00 | 0.00 | 74 | 1025.5 |
| 20260506025539 | 19 | 238 | 11.3 | 19.3 | 0.00 | 0.00 | 0.00 | 75 | 1025.6 |
| 20260506025038 | 19 | 253 | 9.7 | 17.7 | 0.00 | 0.00 | 0.00 | 74 | 1025.6 |
| 20260506024546 | 20 | 256 | 11.3 | 19.3 | 0.00 | 0.00 | 0.00 | 73 | 1025.4 |
| 20260506024036 | 20 | 254 | 11.3 | 25.7 | 0.00 | 0.00 | 0.00 | 73 | 1025.5 |
| 20260506023539 | 20 | 242 | 11.3 | 25.7 | 0.00 | 0.00 | 0.00 | 74 | 1025.5 |
| 20260506023049 | 19 | 235 | 12.9 | 25.7 | 0.00 | 0.00 | 0.00 | 73 | 1025.4 |
| 20260506022538 | 20 | 264 | 12.9 | 20.9 | 0.00 | 0.00 | 0.00 | 74 | 1025.5 |
| 20260506022036 | 20 | 238 | 9.7 | 22.5 | 0.00 | 0.00 | 0.00 | 74 | 1025.5 |
| 20260506021540 | 20 | 249 | 11.3 | 22.5 | 0.00 | 0.00 | 0.00 | 75 | 1025.4 |
| 20260506021038 | 19 | 261 | 12.9 | 22.5 | 0.00 | 0.00 | 0.00 | 74 | 1025.5 |
| 20260506020539 | 20 | 242 | 11.3 | 22.5 | 0.00 | 0.00 | 0.00 | 74 | 1025.6 |
| 20260506020053 | 19 | 242 | 14.5 | 24.1 | 0.00 | 0.00 | 0.00 | 75 | 1025.5 |
| 20260506015539 | 20 | 257 | 14.5 | 24.1 | 0.00 | 0.00 | 0.00 | 73 | 1025.6 |
| 20260506015039 | 20 | 247 | 9.7 | 22.5 | 0.00 | 0.00 | 0.00 | 74 | 1025.7 |
| 20260506014545 | 20 | 257 | 11.3 | 22.5 | 0.00 | 0.00 | 0.00 | 75 | 1025.6 |
| 20260506014039 | 20 | 315 | 12.9 | 22.5 | 0.00 | 0.00 | 0.00 | 73 | 1025.5 |
| 20260506013539 | 20 | 265 | 11.3 | 22.5 | 0.00 | 0.00 | 0.00 | 74 | 1025.5 |
| 20260506013053 | 20 | 271 | 8.0 | 20.9 | 0.00 | 0.00 | 0.00 | 73 | 1025.6 |
| 20260506012541 | 20 | 306 | 9.7 | 25.7 | 0.00 | 0.00 | 0.00 | 74 | 1025.8 |
| 20260506012041 | 20 | 261 | 12.9 | 25.7 | 0.00 | 0.00 | 0.00 | 74 | 1025.9 |
| 20260506011546 | 20 | 274 | 11.3 | 22.5 | 0.00 | 0.00 | 0.00 | 74 | 1026.0 |
| 20260506011039 | 20 | 260 | 12.9 | 22.5 | 0.00 | 0.00 | 0.00 | 73 | 1025.9 |
| 20260506010539 | 20 | 273 | 11.3 | 22.5 | 0.00 | 0.00 | 0.00 | 73 | 1026.0 |
| 20260506010049 | 20 | 234 | 11.3 | 24.1 | 0.00 | 0.00 | 0.00 | 73 | 1026.0 |
| 20260506005538 | 19 | 307 | 14.5 | 25.7 | 0.00 | 0.00 | 0.00 | 72 | 1026.1 |
| 20260506005038 | 19 | 249 | 9.7 | 25.7 | 0.00 | 0.00 | 0.00 | 74 | 1026.1 |
| 20260506004547 | 19 | 254 | 9.7 | 20.9 | 0.00 | 0.00 | 0.00 | 72 | 1026.2 |
| 20260506004038 | 19 | 219 | 11.3 | 27.4 | 0.00 | 0.00 | 0.00 | 74 | 1026.3 |
| 20260506003539 | 18 | 244 | 17.7 | 27.4 | 0.00 | 0.00 | 0.00 | 73 | 1026.3 |
| 20260506003049 | 19 | 261 | 12.9 | 24.1 | 0.00 | 0.00 | 0.00 | 73 | 1026.3 |
| 20260506002539 | 20 | 244 | 16.1 | 24.1 | 0.00 | 0.00 | 0.00 | 72 | 1026.3 |
| 20260506002039 | 19 | 259 | 9.7 | 20.9 | 0.00 | 0.00 | 0.00 | 73 | 1026.5 |
| 20260506001555 | 19 | 285 | 8.0 | 20.9 | 0.00 | 0.00 | 0.00 | 73 | 1026.5 |
| 20260506001036 | 19 | 264 | 14.5 | 22.5 | 0.00 | 0.00 | 0.00 | 73 | 1026.5 |
| 20260506000538 | 19 | 225 | 11.3 | 22.5 | 0.00 | 0.00 | 0.00 | 72 | 1026.6 |
| 20260506000042 | 19 | 273 | 11.3 | 22.5 | 0.00 | 0.00 | 0.00 | 73 | 1026.6 |
| 20260505235539 | 19 | 253 | 9.7 | 19.3 | 0.00 | 0.00 | 0.00 | 73 | 1026.7 |
| 20260505235040 | 19 | 288 | 12.9 | 19.3 | 0.00 | 0.00 | 0.00 | 74 | 1026.8 |
| 20260505234548 | 19 | 280 | 8.0 | 17.7 | 0.00 | 0.00 | 0.00 | 76 | 1026.7 |
| 20260505234039 | 19 | 275 | 8.0 | 19.3 | 0.00 | 0.00 | 0.00 | 75 | 1026.7 |
| 20260505233541 | 18 | 273 | 12.9 | 19.3 | 0.00 | 0.00 | 0.00 | 75 | 1026.8 |
| 20260505233053 | 18 | 322 | 8.0 | 19.3 | 0.00 | 0.00 | 0.00 | 74 | 1026.7 |
| 20260505232539 | 18 | 259 | 9.7 | 20.9 | 0.00 | 0.00 | 0.00 | 75 | 1026.7 |
| 20260505232039 | 18 | 263 | 9.7 | 20.9 | 0.00 | 0.00 | 0.00 | 76 | 1026.7 |
| 20260505231548 | 18 | 306 | 11.3 | 17.7 | 0.00 | 0.00 | 0.00 | 75 | 1026.7 |
| 20260505231039 | 18 | 315 | 6.4 | 16.1 | 0.00 | 0.00 | 0.00 | 77 | 1026.8 |
| 20260505230538 | 18 | 302 | 8.0 | 16.1 | 0.00 | 0.00 | 0.00 | 76 | 1026.8 |
| 20260505230112 | 18 | 270 | 4.8 | 11.3 | 0.00 | 0.00 | 0.00 | 76 | 1026.8 |
| 20260505225540 | 18 | 278 | 4.8 | 11.3 | 0.00 | 0.00 | 0.00 | 77 | 1026.9 |
| 20260505225038 | 18 | 242 | 1.6 | 11.3 | 0.00 | 0.00 | 0.00 | 78 | 1027.0 |
| 20260505224550 | 18 | 58 | 4.8 | 11.3 | 0.00 | 0.00 | 0.00 | 79 | 1027.0 |
| 20260505224038 | 18 | 283 | 4.8 | 12.9 | 0.00 | 0.00 | 0.00 | 78 | 1027.2 |
| 20260505223539 | 17 | 285 | 4.8 | 12.9 | 0.00 | 0.00 | 0.00 | 79 | 1027.1 |
| 20260505223054 | 17 | 236 | 4.8 | 12.9 | 0.00 | 0.00 | 0.00 | 80 | 1027.1 |
| 20260505222538 | 17 | 252 | 6.4 | 12.9 | 0.00 | 0.00 | 0.00 | 81 | 1027.1 |
| 20260505222043 | 17 | 284 | 4.8 | 12.9 | 0.00 | 0.00 | 0.00 | 81 | 1027.3 |
| 20260505221555 | 17 | 298 | 4.8 | 12.9 | 0.00 | 0.00 | 0.00 | 82 | 1027.4 |
| 20260505221035 | 16 | 237 | 6.4 | 11.3 | 0.00 | 0.00 | 0.00 | 83 | 1027.3 |
| 20260505220539 | 16 | 277 | 6.4 | 11.3 | 0.00 | 0.00 | 0.00 | 84 | 1027.4 |
| 20260505220053 | 16 | 292 | 3.2 | 8.0 | 0.00 | 0.00 | 0.00 | 85 | 1027.5 |
| 20260505215539 | 16 | 231 | 3.2 | 8.0 | 0.00 | 0.00 | 0.00 | 86 | 1027.4 |
| 20260505215036 | 16 | 221 | 1.6 | 6.4 | 0.00 | 0.00 | 0.00 | 86 | 1027.4 |
| 20260505214550 | 15 | 239 | 3.2 | 6.4 | 0.00 | 0.00 | 0.00 | 86 | 1027.4 |
| 20260505214038 | 15 | 236 | 3.2 | 4.8 | 0.00 | 0.00 | 0.00 | 87 | 1027.5 |
| 20260505213539 | 15 | 250 | 1.6 | 3.2 | 0.00 | 0.00 | 0.00 | 87 | 1027.5 |
| 20260505213049 | 15 | 0 | 0.0 | 3.2 | 0.00 | 0.00 | 0.00 | 87 | 1027.5 |
| 20260505212540 | 15 | 0 | 0.0 | 1.6 | 0.00 | 0.00 | 0.00 | 87 | 1027.7 |
| 20260505212039 | 15 | 246 | 0.0 | 4.8 | 0.00 | 0.00 | 0.00 | 87 | 1027.7 |
| 20260505211549 | 14 | 0 | 0.0 | 4.8 | 0.00 | 0.00 | 0.00 | 87 | 1027.6 |
| 20260505211039 | 14 | 246 | 1.6 | 4.8 | 0.00 | 0.00 | 0.00 | 87 | 1027.7 |
| 20260505210538 | 14 | 248 | 1.6 | 4.8 | 0.00 | 0.00 | 0.00 | 87 | 1027.7 |
| 20260505210045 | 14 | 267 | 1.6 | 9.7 | 0.00 | 0.00 | 0.00 | 87 | 1027.7 |
| 20260505205539 | 14 | 259 | 3.2 | 9.7 | 0.00 | 0.00 | 0.00 | 87 | 1027.8 |
| 20260505205035 | 14 | 275 | 3.2 | 6.4 | 0.00 | 0.00 | 0.00 | 88 | 1027.7 |
| 20260505204542 | 13 | 269 | 1.6 | 4.8 | 0.00 | 0.00 | 0.00 | 89 | 1027.8 |
| 20260505204039 | 13 | 252 | 0.0 | 4.8 | 0.00 | 0.00 | 0.00 | 91 | 1027.6 |
| 20260505203538 | 13 | 0 | 0.0 | 4.8 | 0.00 | 0.00 | 0.00 | 93 | 1027.6 |
| 20260505203055 | 12 | 277 | 0.0 | 4.8 | 0.00 | 0.00 | 0.00 | 93 | 1027.7 |
| 20260505202539 | 12 | 0 | 0.0 | 0.0 | 0.00 | 0.00 | 0.00 | 94 | 1027.7 |
| 20260505202039 | 12 | 0 | 0.0 | 0.0 | 0.00 | 0.00 | 0.00 | 94 | 1027.7 |
| 20260505201551 | 11 | 0 | 0.0 | 0.0 | 0.00 | 0.00 | 0.00 | 94 | 1027.6 |
| 20260505201042 | 11 | 0 | 0.0 | 0.0 | 0.00 | 0.00 | 0.00 | 94 | 1027.6 |
| 20260505200539 | 11 | 0 | 0.0 | 0.0 | 0.00 | 0.00 | 0.00 | 94 | 1027.6 |
| 20260505200108 | 11 | 0 | 0.0 | 0.0 | 0.00 | 0.00 | 0.00 | 94 | 1027.6 |
| 20260505195544 | 11 | 0 | 0.0 | 0.0 | 0.00 | 0.00 | 0.00 | 94 | 1027.6 |
| 20260505195042 | 11 | 0 | 0.0 | 0.0 | 0.00 | 0.00 | 0.00 | 93 | 1027.7 |
| 20260505194549 | 11 | 0 | 0.0 | 0.0 | 0.00 | 0.00 | 0.00 | 93 | 1027.5 |
| 20260505194039 | 11 | 0 | 0.0 | 0.0 | 0.00 | 0.00 | 0.00 | 93 | 1027.5 |
| 20260505193539 | 10 | 0 | 0.0 | 0.0 | 0.00 | 0.00 | 0.00 | 93 | 1027.6 |
| 20260505193058 | 10 | 0 | 0.0 | 0.0 | 0.00 | 0.00 | 0.00 | 93 | 1027.5 |
| 20260505192538 | 10 | 0 | 0.0 | 0.0 | 0.00 | 0.00 | 0.00 | 93 | 1027.4 |
| 20260505192039 | 10 | 0 | 0.0 | 0.0 | 0.00 | 0.00 | 0.00 | 93 | 1027.5 |
| 20260505191557 | 10 | 0 | 0.0 | 0.0 | 0.00 | 0.00 | 0.00 | 93 | 1027.5 |
| 20260505191041 | 10 | 0 | 0.0 | 0.0 | 0.00 | 0.00 | 0.00 | 93 | 1027.4 |
| 20260505190543 | 10 | 0 | 0.0 | 0.0 | 0.00 | 0.00 | 0.00 | 93 | 1027.4 |
| 20260505190050 | 10 | 0 | 0.0 | 0.0 | 0.00 | 0.00 | 0.00 | 93 | 1027.4 |
| 20260505185539 | 10 | 0 | 0.0 | 0.0 | 0.00 | 0.00 | 0.00 | 93 | 1027.4 |
| 20260505185039 | 10 | 0 | 0.0 | 0.0 | 0.00 | 0.00 | 0.00 | 93 | 1027.5 |
| 20260505184548 | 10 | 0 | 0.0 | 0.0 | 0.00 | 0.00 | 0.00 | 93 | 1027.5 |
| 20260505184040 | 10 | 0 | 0.0 | 0.0 | 0.00 | 0.00 | 0.00 | 93 | 1027.4 |
| 20260505183541 | 10 | 0 | 0.0 | 0.0 | 0.00 | 0.00 | 0.00 | 93 | 1027.5 |
| 20260505183048 | 10 | 0 | 0.0 | 0.0 | 0.00 | 0.00 | 0.00 | 93 | 1027.5 |
| 20260505182540 | 10 | 197 | 0.0 | 0.0 | 0.00 | 0.00 | 0.00 | 93 | 1027.4 |
| 20260505182039 | 10 | 0 | 0.0 | 0.0 | 0.00 | 0.00 | 0.00 | 93 | 1027.5 |
| 20260505181554 | 10 | 0 | 0.0 | 3.2 | 0.00 | 0.00 | 0.00 | 92 | 1027.6 |
| 20260505181038 | 10 | 0 | 1.6 | 3.2 | 0.00 | 0.00 | 0.00 | 92 | 1027.5 |
| 20260505180538 | 10 | 195 | 0.0 | 1.6 | 0.00 | 0.00 | 0.00 | 93 | 1027.5 |
| 20260505180047 | 10 | 0 | 0.0 | 0.0 | 0.00 | 0.00 | 0.00 | 93 | 1027.5 |
| 20260505175539 | 10 | 0 | 0.0 | 0.0 | 0.00 | 0.00 | 0.00 | 93 | 1027.5 |
| 20260505175039 | 10 | 0 | 0.0 | 0.0 | 0.00 | 0.00 | 0.00 | 93 | 1027.6 |
| 20260505174557 | 10 | 0 | 0.0 | 0.0 | 0.00 | 0.00 | 0.00 | 93 | 1027.6 |
| 20260505174040 | 10 | 0 | 0.0 | 0.0 | 0.00 | 0.00 | 0.00 | 93 | 1027.7 |
| 20260505173538 | 11 | 0 | 0.0 | 1.6 | 0.00 | 0.00 | 0.00 | 93 | 1027.7 |
| 20260505173054 | 11 | 0 | 0.0 | 3.2 | 0.00 | 0.00 | 0.00 | 93 | 1027.7 |
| 20260505172538 | 11 | 0 | 0.0 | 3.2 | 0.00 | 0.00 | 0.00 | 93 | 1027.7 |
| 20260505172039 | 11 | 0 | 0.0 | 1.6 | 0.00 | 0.00 | 0.00 | 93 | 1027.7 |
| 20260505171546 | 11 | 0 | 0.0 | 1.6 | 0.00 | 0.00 | 0.00 | 93 | 1027.8 |
| 20260505171039 | 11 | 196 | 0.0 | 1.6 | 0.00 | 0.00 | 0.00 | 93 | 1027.8 |
| 20260505170538 | 11 | 0 | 0.0 | 0.0 | 0.00 | 0.00 | 0.00 | 93 | 1027.8 |
| 20260505170051 | 11 | 0 | 0.0 | 1.6 | 0.00 | 0.00 | 0.00 | 93 | 1027.8 |
| 20260505165543 | 11 | 0 | 0.0 | 1.6 | 0.00 | 0.00 | 0.00 | 93 | 1027.9 |
| 20260505165038 | 11 | 0 | 0.0 | 0.0 | 0.00 | 0.00 | 0.00 | 93 | 1028.0 |
| 20260505164551 | 11 | 0 | 0.0 | 1.6 | 0.00 | 0.00 | 0.00 | 93 | 1028.0 |
| 20260505164039 | 11 | 0 | 0.0 | 1.6 | 0.00 | 0.00 | 0.00 | 94 | 1027.9 |
| 20260505163538 | 11 | 195 | 0.0 | 1.6 | 0.00 | 0.00 | 0.00 | 94 | 1028.0 |
| 20260505163048 | 11 | 195 | 0.0 | 1.6 | 0.00 | 0.00 | 0.00 | 94 | 1027.9 |
| 20260505162538 | 10 | 195 | 0.0 | 1.6 | 0.00 | 0.00 | 0.00 | 94 | 1028.0 |
| 20260505162039 | 10 | 177 | 0.0 | 1.6 | 0.00 | 0.00 | 0.00 | 94 | 1028.0 |
| 20260505161548 | 10 | 0 | 0.0 | 3.2 | 0.00 | 0.00 | 0.00 | 94 | 1028.1 |
| 20260505161039 | 10 | 0 | 0.0 | 3.2 | 0.00 | 0.00 | 0.00 | 94 | 1028.0 |
| 20260505160539 | 10 | 178 | 0.0 | 3.2 | 0.00 | 0.00 | 0.00 | 94 | 1028.0 |
| 20260505153051 | 10 | 177 | 0.0 | 1.6 | 0.00 | 0.00 | 0.00 | 93 | 1028.2 |
| 20260505152538 | 10 | 177 | 0.0 | 1.6 | 0.00 | 0.00 | 0.00 | 93 | 1028.1 |
| 20260505152039 | 10 | 176 | 0.0 | 1.6 | 0.00 | 0.00 | 0.00 | 93 | 1028.1 |
| 20260505151547 | 10 | 0 | 0.0 | 1.6 | 0.00 | 0.00 | 0.00 | 93 | 1028.2 |